AirNav   Air Wisconsin pilot careers
 
 427 users online  

CA84 Torrey Pines Gliderport
San Diego, California, USA

GOING TO SAN DIEGO?


FAA INFORMATION EFFECTIVE 11 OCTOBER 2018

Location

FAA Identifier: CA84
Lat/Long: 32-53-23.0000N / 117-14-49.0000W
32-53.383333N / 117-14.816667W
32.8897222 / -117.2469444
(estimated)
Elevation: 372 ft. / 113 m (estimated)
Variation: 13E (1985)
From city: 11 miles NW of SAN DIEGO, CA
Time zone: UTC -7 (UTC -8 during Standard Time)
Zip code: 92037

Gliderport Operations

Gliderport use: Private use. Permission required prior to landing
Activation date: 11/1961
Control tower: no
ARTCC: LOS ANGELES CENTER
FSS: SAN DIEGO FLIGHT SERVICE STATION
Attendance: UNATNDD
Wind indicator: no
Segmented circle: no

Gliderport Communications

WX ASOS at MYF (7 nm SE): 126.9 (858-576-4337)
WX ASOS at SAN (10 nm S): PHONE 619-296-8934
WX AWOS-3P at SEE (14 nm E): 125.45 (619-449-1228)
WX ASOS at CRQ (14 nm N): PHONE 760-930-0864
WX ASOS at RNM (19 nm NE): 132.025 (760-789-0736)

Nearby radio navigation aids

VOR radial/distance  VOR name  Freq  Var
MZBr335/6.5MISSION BAY VORTAC117.8015E
PGYr307/21.5POGGI VORTAC109.8014E
OCNr143/22.7OCEANSIDE VORTAC115.3015E
TIJr311/25.7TIJUANA VOR/DME116.5014E
JLIr231/36.5JULIAN VORTAC114.0015E

Gliderport Services

Airframe service: NONE
Powerplant service: NONE

Runway Information

Runway 9/27

Dimensions: 1500 x 30 ft. / 457 x 9 m
Surface: asphalt
RUNWAY 9  RUNWAY 27
Traffic pattern: leftleft
Obstructions: nonetrees, 100 ft. from runway

Gliderport Ownership and Management from official FAA records

Ownership: Publicly-owned
Owner: CITY OF SAN DIEGO
Manager: JIM FROST
4740 HARBINSON AVE
LA MESA, CA 91941
Phone 619-461-9614
WORK PHONE 619-535-9505 EXT 1585

Additional Remarks

GLIDER PORT IS LEASED FM CITY TO THE ASSOCD GLIDER CLUB OF SOUTHERN CALIF FOR STUDENT TRAINING & RIDGE SOARING.
ALL ACFT ARE TRAILERED GLIDERS.
ROLLING RWY .6 PERCENT GRADIENT.
EXTENSIVE HANG GLIDER OPERATIONS ON WEEKENDS AND WEEKDAYS.

Instrument Procedures

There are no published instrument procedures at CA84.

Some nearby airports with instrument procedures:

KNKX - Miramar MCAS (Joe Foss Field) Airport (5 nm E)
KMYF - Montgomery-Gibbs Executive Airport (7 nm SE)
KSAN - San Diego International Airport (10 nm S)
KNZY - North Island Naval Air Station (Halsey Field) (12 nm S)
KSEE - Gillespie Field Airport (14 nm E)
KCRQ - Mc Clellan-Palomar Airport (14 nm N)
KRNM - Ramona Airport (19 nm NE)
 
Loc | Ops | Rwys | IFR | FBO | Links
Com | Nav | Svcs | Stats | Notes


 
Area around CA84 (Torrey Pines Gliderport)
 
Road maps at: MapQuest Bing Google
 
Aerial photo
WARNING: Photo may not be current or correct
Aerial photo of CA84 (Torrey Pines Gliderport)
Photo by Doug Fronius
Photo taken 13-Mar-2004
from a 1942 Schweizer TG-2 sailplane.

Do you have a better or more recent aerial photo of Torrey Pines Gliderport that you would like to share? If so, please send us your photo.

 
Sectional chart

 
Airport distance calculator
Flying to Torrey Pines Gliderport? Find the distance to fly.

From to CA84

Sunrise and sunset
Times for 15-Oct-2018
 Local
(UTC-7)
 Zulu
(UTC)
Morning civil twilight06:2913:29
Sunrise06:5413:54
Sunset18:1501:15
Evening civil twilight18:4001:40

Current date and time
Zulu (UTC)  15-Oct-2018 09:48:49
Local (UTC-7)  15-Oct-2018 02:48:49
 
METAR
KNKX 
6nm E 
150855Z 06004KT 10SM FEW085 FEW120 16/13 A3000 RMK AO2 SLP152 T01610128 53005
KMYF 
7nm SE 
150853Z AUTO 04003KT 10SM BKN085 16/14 A3000 RMK AO2 SLP155 T01610139 53004
KSAN 
10nm S 
150938Z 00000KT 10SM SCT017 18/14 A3001 RMK AO2 T01830144
KNZY 
11nm S 
150652Z AUTO 33003KT 10SM CLR 18/16 A2998 RMK AO2 SLP151 T01830156 PNO $
KCRQ 
15nm N 
150853Z AUTO 00000KT 10SM SCT120 16/14 A2999 RMK AO2 SLP151 T01610144 53005
KSEE 
15nm E 
150935Z AUTO 00000KT 10SM SCT120 15/14 A3000 RMK AO2
KRNM 
19nm NE 
150909Z AUTO 00000KT 1/2SM FG VV004 11/11 A3001 RMK AO2 T01110106
TAF
KNKX 
6nm E 
1503/1603 VRB06KT 9999 FEW030 QNH2992INS BECMG 1513/1515 35012KT 9999 FEW070 QNH2998INS TEMPO 1519/1601 35012G22KT T15/1513Z T27/1521Z
KSAN 
10nm S 
150525Z 1506/1612 VRB04KT P6SM FEW025 FM150800 VRB04KT P6SM BKN025 FM151100 VRB04KT P6SM FEW020 FM152000 33009G15KT P6SM SKC FM160300 VRB06KT P6SM SKC FM160900 VRB04KT P6SM SKC
KNZY 
11nm S 
1507/1607 VRB06KT 9999 SCT020 530009 520909 QNH2995INS FM151900 33009KT 9999 SKC 530009 530909 531809 QNH2991INS FM152300 35017G23KT 9999 SKC 530009 530909 531809 QNH2993INS T17/1512Z T28/1522Z FS30135
KCRQ 
15nm N 
150525Z 1506/1606 VRB04KT P6SM SKC FM151000 03003KT P6SM FEW020 WS010/02025KT FM151800 33009KT P6SM SKC FM160000 36005KT P6SM SKC
NOTAMs
Click for the latest NOTAMs
NOTAMs are issued by the DoD/FAA and will open in a separate window not controlled by AirNav.

 

 
 

Would you like to see your business listed on this page?

 If your business provides an interesting product or service to pilots, flight crews, aircraft, or users of the Torrey Pines Gliderport, you should consider listing it here.  To start the listing process, click on the button below
 
Add a business
 

Other Pages about Torrey Pines Gliderport

www.agcsc.org/torrey_pines_info.html
 
Update a link
 
Copyright © AirNav, LLC. All rights reserved. Privacy Policy  Contact